Regional Weather Roundup
Issued by NWS Mt. Holly, NJ

Home | Current Version | Previous Version | Text Only | Print | Product List | Glossary On
Versions: 1 2 3 4 5 6 7 8 9 10 11 12 13 14 15 16 17 18 19 20 21 22 23 24 25 26 27 28
000
ASUS41 KPHI 221412
RWRPHI

REGIONAL WEATHER ROUNDUP
NATIONAL WEATHER SERVICE MOUNT HOLLY NJ
900 AM EST SUN JAN 22 2017

NOTE:  "FAIR" INDICATES FEW OR NO CLOUDS BELOW 12,000 FEET WITH NO
SIGNIFICANT WEATHER AND/OR OBSTRUCTIONS TO VISIBILITY.

 * = STATION DOES NOT REPORT PRECIPITATION (E.G. RAIN, SNOW, ETC.)
        OR FOG.

NJZ015>026-221500-
SOUTHERN NEW JERSEY

CITY           SKY/WX    TMP DP  RH WIND       PRES   REMARKS
POMONA         FOG       46  45  96 NE8       29.69R VSB 1
WILDWOOD*      CLOUDY    48  48 100 NE7       29.68R
MILLVILLE      CLOUDY    47  47 100 NE8       29.70R FOG
MOUNT HOLLY    CLOUDY    45  45 100 N7        29.71S FOG
TRENTON        FOG       44  44 100 N6        29.71R VSB 1/4

$$
NJZ001>014-221500-
NORTHERN NEW JERSEY

CITY           SKY/WX    TMP DP  RH WIND       PRES   REMARKS
SUSSEX         CLOUDY    40  40 100 CALM      29.73R FOG
ANDOVER*         N/A     39  39 100 CALM      29.72R
MORRISTOWN     FOG       43  43 100 CALM      29.74R VSB 1/4
NEWARK         FOG       45  44  97 N7        29.73R VSB 1/4
TETERBORO      FOG       46  45  96 N5        29.72F VSB 1/4
CALDWELL       FOG       43  43 100 N3        29.74R VSB 1/4
SOMERVILLE     CLOUDY    44  43  96 CALM      29.72R FOG
ALLAIRE*       CLOUDY    45  45 100 NE5       29.73R FOG
TOMS RIVER*    CLOUDY    46  46 100 CALM      29.72R

$$
PAZ043-044-047-054-055-060>062-066>071-221500-
EASTERN PENNSYLVANIA

CITY           SKY/WX    TMP DP  RH WIND       PRES   REMARKS
PHILADELPHIA   CLOUDY    46  45  96 NE8       29.72R FOG
NORTH PHILA    CLOUDY    46  45  96 N6        29.73R FOG
BLUE BELL*     CLOUDY    43  43 100 CALM      29.72R VSB 1/2
DOYLESTOWN     FOG       44  44 100 N3        29.71R VSB 3/4
QUAKERTOWN*    CLOUDY    41  41 100 CALM      29.72S VSB<1/4
PERKASIE*      FOG       41  41 100 NE3       29.72S VSB<1/4
POTTSTOWN      FOG       42  42 100 CALM      29.74R VSB 1/2
LANCASTER      FOG       43  43 100 NE5       29.72R VSB 1/4
COATESVILLE    FOG       43  43 100 N7        29.72S VSB<1/4
READING        FOG       41  41 100 CALM      29.73R VSB 1/8
ALLENTOWN      FOG       42  40  92 N3        29.73R VSB 1/4
MOUNT POCONO   MOSUNNY   45  43  93 E6        29.69R
HAZLETON       PTSUNNY   41  41 100 CALM      29.73R
LEHIGHTON      FOG       41  41 100 CALM      29.73S VSB 1
WILKES BARRE   FOG       41  41 100 CALM      29.71R VSB 1/4

$$
DEZALL-MDZ008-012-015-019-020-221500-
DELAWARE AND EASTERN MARYLAND

CITY           SKY/WX    TMP DP  RH WIND       PRES   REMARKS
WILMINGTON     CLOUDY    46  46 100 N6        29.72R FOG
GEORGETOWN     CLOUDY    47  46  97 N8        29.66S FOG
EASTON         CLOUDY    46  45  93 N8        29.72R FOG
PATUXENT       FOG       46  46 100 N9        29.68R VSB 1/2
OCEAN CITY     CLOUDY    50  50 100 E13G18    29.64F
WALLOPS ISLAND LGT RAIN  53  53 100 NE15      29.64R FOG
CAMBRIDGE      CLOUDY    45  45 100 N6        29.68R
SALISBURY      CLOUDY    51  51 100 E9        29.64S

$$
PAZ001-021-NYZ056-072-MDZ011-DCZ001-221500-
OTHER NEARBY LOCATIONS

CITY           SKY/WX    TMP DP  RH WIND       PRES   REMARKS
HARRISBURG     CLOUDY    43  43 100 NE5       29.72S FOG
STATE COLLEGE  FOG       39  39 100 CALM      29.71S VSB 1/8
WILLIAMSPORT   CLOUDY    41  40  96 NW3       29.73R FOG
BINGHAMTON     FOG       36  36 100 E3        29.67S VSB<1/4
NEW YORK CITY  FOG       44  44 100 E5        29.75S VSB 1/2
BALTIMORE      FOG       46  46 100 NW7       29.71R VSB 1
WASHINGTON DC  DRIZZLE   48  48 100 N10       29.71S FOG

$$




USA.gov is the U.S. government's official web portal to all federal, state and local government web resources and services.